Content
SEND FEEDBACK

Daily
Averages
Monthly
Summary
United States of America

PYGA BEACH, GUAM


Home > North America > United States > Guam
Elevation: 20 feet     Latitude: 13 17N     Longitude: 144 39E

WEATHER
 
SELECT A DAY
Number of Records: 341,524;   Date Range: 1/1/95 - 7/7/14
 
SHARE

PRINT THIS DATA

[ ← Previous Day ]
WEATHER ALMANAC - FEBRUARY 8, 2014
[ Next Day → ]
[ °C ]   °F
Weather ElementAverageHighLow
Temperature77.8 °F82 °F (12:58 pm)74.7 °F (6:58 am)
Dewpoint69.5 °F71.6 °F (7:48 pm)67.5 °F (4:58 am)
Humidity75.6 %83 % (7:48 pm)66 % (12:58 pm)
Barometer29.80 in29.86 in (9:58 am)29.75 in (2:58 pm)
Wind Speed11.4 mph15 mph (8:58 am)
Wind Gust20.7 mph (1:58 pm)
Weather ElementAverage
Visibility10 mi
Wind DirectionENE (51.9 °)

Weather ElementTotal
Precipitation---
Cooling Degree Days13.4 (Base 65)
Growing Degree Days28.4 (Base 50)
Averaged from 27 records on February 8, 2014
WEATHER CONDITIONS BREAKOUT
WIND DIRECTION BREAKOUT
WEATHER BY HOUR - FEBRUARY 8, 2014
[ °C ]   °F
Local TimeTemperatureDewpointHumidityBarometerVisibilityWind DirectionWind SpeedGust SpeedPrecipitationEventsConditions
1:18 AM75.2 °F68.0 °F78 %29.82 in10.0 miNE (50°)11.5 mphMostly Cloudy
1:58 AM75.2 °F67.8 °F78 %29.78 in10.0 miNE (50°)10.4 mphPartly Cloudy
2:58 AM75.9 °F69.6 °F81 %29.77 in10.0 miNE (50°)11.5 mphMostly Cloudy
3:58 AM75.4 °F68.2 °F78 %29.76 in10.0 miNE (50°)12.7 mphScattered Clouds
4:58 AM75.0 °F67.5 °F77 %29.78 in10.0 miNE (50°)11.5 mphPartly Cloudy
5:58 AM75.6 °F68.9 °F80 %29.79 in10.0 miENE (60°)12.7 mphMostly Cloudy
6:58 AM74.7 °F68.2 °F80 %29.81 in10.0 miENE (60°)10.4 mphScattered Clouds
7:58 AM76.8 °F69.6 °F78 %29.83 in10.0 miENE (60°)12.7 mphClear
8:58 AM79.0 °F68.4 °F70 %29.84 in10.0 miENE (60°)15.0 mphClear
9:58 AM80.4 °F70.0 °F70 %29.86 in10.0 miNE (50°)15.0 mphClear
10:58 AM81.1 °F70.2 °F69 %29.84 in10.0 miENE (70°)12.7 mphPartly Cloudy
11:58 AM81.5 °F70.0 °F68 %29.82 in10.0 miENE (60°)12.7 mphClear
12:58 PM82.0 °F69.6 °F66 %29.79 in10.0 miENE (60°)12.7 mph18.4 mphClear
1:58 PM81.7 °F70.5 °F69 %29.77 in10.0 miNE (50°)12.7 mph20.7 mphClear
2:58 PM81.9 °F70.5 °F68 %29.75 in10.0 miNE (50°)13.8 mphPartly Cloudy
3:58 PM81.0 °F69.8 °F69 %29.75 in10.0 miNE (40°)11.5 mphClear
4:58 PM80.2 °F69.8 °F70 %29.76 in10.0 miNE (50°)11.5 mphClear
5:58 PM78.6 °F69.3 °F73 %29.77 in10.0 miNE (40°)9.2 mphClear
6:58 PM77.2 °F70.3 °F79 %29.78 in10.0 miNE (50°)9.2 mphClear
7:48 PM77.0 °F71.6 °F83 %29.83 in10.0 miNE (50°)9.2 mphMostly Cloudy
7:53 PM77.0 °F71.6 °F83 %29.83 in10.0 miNE (50°)10.4 mphScattered Clouds
7:58 PM77.0 °F70.5 °F80 %29.81 in10.0 miNE (50°)10.4 mphScattered Clouds
8:58 PM77.0 °F69.8 °F78 %29.82 in10.0 miNE (40°)10.4 mphMostly Cloudy
9:18 PM77.0 °F69.8 °F78 %29.85 in10.0 miNE (50°)10.4 mphScattered Clouds
9:58 PM76.5 °F69.6 °F79 %29.83 in10.0 miNE (50°)10.4 mphPartly Cloudy
10:58 PM76.1 °F68.9 °F78 %29.82 in10.0 miNE (50°)9.2 mphClear
11:58 PM75.4 °F68.9 °F80 %29.82 in10.0 miNE (50°)8.1 mphClear
Hourly data recorded from PGUA, located miles away from Pyga Beach, Guam







STORIES FROM OUR PARTNERS